Location: Riddle Hill
(39.7867°N, 89.7645°W)
Time: 20:14:57
(UTC+00:00)

GPS 2-04 Rocket1 - Pass Details

Date: 29 October 2020
Orbit: 417 x 546 km, 35.6° (Epoch: 30 November)

Event Time Altitude Azimuth Distance (km) Brightness Sun altitude
Rises 23:29:32 0° 230° (SW) 2,585 7.5 -6.3°
Reaches altitude 10° 23:31:57 10° 217° (SW) 1,726 6.2 -6.8°
Maximum altitude 23:35:17 26° 160° (SSE) 1,062 4.2 -7.4°
Drops below altitude 10° 23:38:43 10° 103° (ESE) 1,783 4.9 -8.1°
Enters shadow 23:39:04 - 101° (E) 1,900 5.0 -8.1°
